U of Miami Health System FL US WEATHERSTEM current weather conditions

sailwx.info

Wind from 111 at 5 knots gusting 20

Air temperature 25.5° C
Dewpoint 21.6° C

Last reported at 2020-Feb-25 19:00 UTC.
Time now 2020-Feb-25 19:29 UTC

Location: N 25°47' W 080°13'.
View on Google Maps.

See reports from other nearby stations

  
Tides and Currents Weather Stations Pressure Air Temp Water Temp Dewpoint Dewpoint Depression Visibility Wind Speed Wind Dir Waves Ship Positions
date/time (UTC)wind fromknots sea level pressurealtimeterstation pressurevisibilityair tempwater tempwave heightnotes
2020-Feb-25 19:00 111 5 gusting 20 25.5
2020-Feb-25 18:40 360 13 gusting 20 25.5
2020-Feb-25 18:30 138 15 gusting 22 25.4
2020-Feb-25 18:20 134 19 gusting 23 25.5
2020-Feb-25 18:10 360 11 gusting 22 25.5
2020-Feb-25 18:00 146 12 gusting 24 25.4
2020-Feb-25 17:40 140 21 gusting 22 25.8
2020-Feb-25 17:30 145 13 gusting 24 25.4
2020-Feb-25 17:20 188 12 gusting 26 25.3
2020-Feb-25 17:10 149 16 gusting 24 25.4
2020-Feb-25 17:00 178 13 gusting 22 25.4
2020-Feb-25 16:40 360 7 gusting 24 25.7
2020-Feb-25 16:30 121 6 gusting 22 25.3
2020-Feb-25 16:20 159 17 gusting 26 25.3
2020-Feb-25 16:10 123 7 gusting 20 25.7
2020-Feb-25 14:40 160 13 gusting 19 26.1
2020-Feb-25 14:30 160 13 gusting 18 26.1
2020-Feb-25 14:20 160 13 gusting 18 26.1
2020-Feb-25 14:10 160 13 gusting 18 26.1
2020-Feb-25 14:00 150 12 gusting 17 25.6
2020-Feb-25 13:50 160 9 gusting 9 25.0
2020-Feb-25 13:40 160 8 gusting 8 25.0
2020-Feb-25 13:30 160 8 gusting 8 25.0
2020-Feb-25 13:20 160 7 gusting 7 24.4
2020-Feb-25 13:10 160 7 gusting 7 24.4
2020-Feb-25 13:00 160 7 gusting 7 23.9
2020-Feb-25 12:50 160 8 gusting 8 23.3
2020-Feb-25 12:40 160 7 gusting 7 23.3
2020-Feb-25 12:30 160 7 gusting 7 23.3
2020-Feb-25 12:20 160 7 gusting 7 22.8
2020-Feb-25 12:10 160 7 gusting 7 22.8
2020-Feb-25 12:00 160 6 gusting 6 22.8
2020-Feb-25 11:50 160 6 gusting 6 22.8
2020-Feb-25 11:40 160 6 gusting 6 22.8
2020-Feb-25 11:30 160 6 gusting 6 22.8
2020-Feb-25 11:20 160 6 gusting 6 22.8
2020-Feb-25 11:10 160 6 gusting 6 22.8
2020-Feb-25 11:00 160 6 gusting 6 22.8
2020-Feb-25 10:50 170 6 gusting 6 22.8
2020-Feb-25 10:40 170 6 gusting 6 22.8
2020-Feb-25 10:20 170 6 gusting 6 22.8
2020-Feb-25 10:10 160 6 gusting 6 22.8
2020-Feb-25 07:50 155 9 gusting 17 23.1
2020-Feb-25 07:40 360 10 gusting 17 23.0
2020-Feb-25 07:30 360 8 gusting 15 23.1
2020-Feb-25 07:20 138 16 gusting 18 23.1
2020-Feb-25 07:10 360 8 gusting 16 23.1
2020-Feb-25 07:00 360 11 gusting 16 23.1
2020-Feb-25 06:50 134 13 gusting 16 23.2
2020-Feb-25 06:40 136 11 gusting 16 23.2
2020-Feb-25 06:30 136 7 gusting 15 23.2
2020-Feb-25 06:20 136 10 gusting 16 23.2
2020-Feb-25 06:10 145 13 gusting 16 23.1
2020-Feb-25 06:00 146 14 gusting 14 23.1
2020-Feb-25 05:50 136 13 gusting 15 23.1
2020-Feb-25 05:40 360 11 gusting 15 23.1
2020-Feb-25 05:30 360 8 gusting 16 23.2
2020-Feb-25 05:20 360 8 gusting 13 23.1
2020-Feb-25 05:10 360 12 gusting 17 23.2
2020-Feb-25 05:00 150 13 gusting 14 23.2
2020-Feb-25 04:50 163 9 gusting 16 23.3
2020-Feb-25 01:20 130 4 gusting 4 22.8
2020-Feb-25 01:10 130 5 gusting 5 22.8
2020-Feb-25 01:00 130 5 gusting 5 22.8
2020-Feb-25 00:50 130 5 gusting 5 22.8
2020-Feb-25 00:40 130 5 gusting 5 22.8
2020-Feb-25 00:30 130 5 gusting 5 22.8
2020-Feb-25 00:20 130 5 gusting 5 22.8
2020-Feb-25 00:10 130 5 gusting 5 22.8
2020-Feb-25 00:00 130 6 gusting 6 22.8
2020-Feb-24 23:50 130 7 gusting 7 22.8
2020-Feb-24 23:40 130 7 gusting 7 22.8
2020-Feb-24 23:20 130 8 gusting 8 23.3
2020-Feb-24 23:10 130 8 gusting 8 23.3
2020-Feb-24 23:00 130 8 gusting 8 23.9
2020-Feb-24 22:50 130 9 gusting 15 23.9
2020-Feb-24 22:40 130 10 gusting 15 23.3
2020-Feb-24 22:30 130 10 gusting 15 23.3
2020-Feb-24 22:20 130 10 gusting 15 23.9
2020-Feb-24 22:10 130 10 gusting 16 23.9
2020-Feb-24 22:00 130 10 gusting 16 23.9
2020-Feb-24 21:50 150 10 gusting 10 23.9
2020-Feb-24 21:40 140 10 gusting 10 23.9
2020-Feb-24 21:20 23.7
2020-Feb-24 21:00 360 9 gusting 18 23.7
2020-Feb-24 20:50 136 9 gusting 16 23.8
2020-Feb-24 20:40 360 8 gusting 19 23.5
2020-Feb-24 20:30 360 10 gusting 17 23.7
2020-Feb-24 20:00 140 8 gusting 16 23.4
2020-Feb-24 19:50 139 10 gusting 19 23.2
2020-Feb-24 19:40 360 17 gusting 18 23.4
2020-Feb-24 19:30 132 10 gusting 18 23.3
2020-Feb-24 19:20 142 7 gusting 16 23.1
2020-Feb-24 19:00 167 2 gusting 17 23.7
2020-Feb-24 18:40 094 12 gusting 15 23.8
2020-Feb-24 18:30 360 11 gusting 17 23.6
2020-Feb-24 18:00 360 12 gusting 20 23.4
2020-Feb-24 17:50 360 8 gusting 19 23.4
2020-Feb-24 17:40 360 8 gusting 18 23.5
2020-Feb-24 17:30 088 10 gusting 20 23.7
2020-Feb-24 17:20 133 15 gusting 21 23.1
2020-Feb-24 17:00 121 10 gusting 18 23.4
2020-Feb-24 16:50 146 14 gusting 21 23.1
2020-Feb-24 16:40 119 13 gusting 19 23.3
2020-Feb-24 16:30 142 6 gusting 18 23.1
2020-Feb-24 16:20 082 6 gusting 19 23.2
2020-Feb-24 16:00 105 10 gusting 19 23.1
2020-Feb-24 15:50 032 2 gusting 13 23.2
2020-Feb-24 15:40 360 11 gusting 15 22.6
2020-Feb-24 15:30 103 6 gusting 16 22.3
2020-Feb-24 15:20 130 6 gusting 13 22.3
2020-Feb-24 15:00 064 13 gusting 17 22.3
2020-Feb-24 14:50 093 13 gusting 19 22.7
2020-Feb-24 14:40 107 11 gusting 23 22.4
2020-Feb-24 14:30 099 12 gusting 19 22.5
2020-Feb-24 14:20 069 6 gusting 17 22.2
2020-Feb-24 14:00 118 9 gusting 19 22.2
2020-Feb-24 13:50 107 13 gusting 23 22.0
2020-Feb-24 13:40 360 14 gusting 21 22.0
2020-Feb-24 13:30 119 19 gusting 23 21.9
2020-Feb-24 13:20 119 17 gusting 21 21.9
2020-Feb-24 13:00 088 10 gusting 20 21.8
2020-Feb-24 12:50 121 9 gusting 15 21.6
2020-Feb-24 12:40 100 9 gusting 16 21.4
2020-Feb-24 11:20 360 3 gusting 16 21.2
2020-Feb-24 11:00 088 8 gusting 16 21.2
2020-Feb-24 10:50 094 9 gusting 14 21.2
2020-Feb-24 10:40 140 7 gusting 14 21.2
2020-Feb-24 10:30 101 9 gusting 16 21.2
2020-Feb-24 10:20 096 7 gusting 14 21.2
2020-Feb-24 10:00 131 6 gusting 13 21.1
2020-Feb-24 09:50 113 9 gusting 17 21.2
2020-Feb-24 09:40 126 11 gusting 16 21.2
2020-Feb-24 09:30 103 12 gusting 14 21.1
2020-Feb-24 09:20 115 8 gusting 13 21.1
2020-Feb-24 09:00 143 10 gusting 16 21.2
2020-Feb-24 08:50 113 8 gusting 12 21.1
2020-Feb-24 08:40 090 6 gusting 14 21.2
2020-Feb-24 08:30 082 6 gusting 15 21.1
2020-Feb-24 08:20 092 7 gusting 13 21.1
2020-Feb-24 08:00 104 6 gusting 15 21.2
2020-Feb-24 07:50 109 5 gusting 15 21.2
2020-Feb-24 07:40 092 13 gusting 14 21.1
2020-Feb-24 07:30 097 1 gusting 13 21.1
2020-Feb-24 07:20 112 11 gusting 12 21.2
2020-Feb-24 07:00 148 10 gusting 18 21.2
2020-Feb-24 06:50 123 11 gusting 16 21.2
2020-Feb-24 06:40 098 6 gusting 13 21.2
2020-Feb-24 06:30 132 8 gusting 16 21.2
2020-Feb-24 06:20 360 17 gusting 23 21.2
2020-Feb-24 06:10 108 10 gusting 25 21.3
2020-Feb-24 06:00 360 10 gusting 19 21.2
2020-Feb-24 05:50 092 12 gusting 20 21.2
2020-Feb-24 05:30 113 13 gusting 19 21.2
2020-Feb-24 05:20 086 6 gusting 17 21.3
2020-Feb-24 05:10 360 13 gusting 19 21.3
2020-Feb-24 05:00 098 9 gusting 24 21.3
2020-Feb-24 04:50 107 12 gusting 15 21.3
2020-Feb-24 04:30 125 9 gusting 17 21.4
2020-Feb-24 04:20 096 11 gusting 13 21.4
2020-Feb-24 04:10 093 9 gusting 15 21.5
2020-Feb-24 03:50 123 7 gusting 15 21.5
2020-Feb-24 00:50 063 5 gusting 10 21.4
2020-Feb-24 00:30 062 5 gusting 10 21.5
2020-Feb-24 00:20 059 6 gusting 11 21.5
2020-Feb-24 00:10 360 11 gusting 13 21.6
2020-Feb-24 00:00 102 11 gusting 13 21.6
2020-Feb-23 23:50 105 9 gusting 12 21.6
2020-Feb-23 23:30 094 9 gusting 13 21.6
2020-Feb-23 23:20 074 6 gusting 13 21.7
2020-Feb-23 23:10 080 6 gusting 14 21.7
2020-Feb-23 23:00 062 7 gusting 12 21.7
2020-Feb-23 22:50 050 7 gusting 13 21.7
2020-Feb-23 22:30 107 2 gusting 12 21.8
2020-Feb-23 22:20 360 12 gusting 16 21.8
2020-Feb-23 22:10 102 13 gusting 16 22.0
2020-Feb-23 22:00 097 7 gusting 15 21.8
2020-Feb-23 21:50 360 11 gusting 14 22.1
2020-Feb-23 21:30 080 8 gusting 14 22.1
2020-Feb-23 21:20 069 13 gusting 15 22.2
2020-Feb-23 21:10 074 9 gusting 13 22.3
2020-Feb-23 21:00 068 11 gusting 18 22.1
2020-Feb-23 20:50 082 12 gusting 17 22.0
2020-Feb-23 20:30 077 11 gusting 18 22.0
2020-Feb-23 20:20 360 13 gusting 18 22.1
2020-Feb-23 20:10 066 13 gusting 19 22.1
2020-Feb-23 20:00 055 15 gusting 24 21.9
2020-Feb-23 19:50 082 9 gusting 20 21.9
2020-Feb-23 19:40 103 6 gusting 22 21.9
2020-Feb-23 19:30 073 10 gusting 22 21.8
2020-Feb-23 19:20 360 16 gusting 22 21.7
2020-Feb-23 19:10 087 10 gusting 16 22.8
2020-Feb-23 19:00 075 12 gusting 17 22.5